User: anonymous   Login
Location: Ahausen
(50.4985°N, 8.2722°E)
Time: 07:09:13
(UTC+00:00)
Language:

AO-109 - Orbit

View from above orbital plane
View from above orbital plane
View from above satellite
View from above satellite

Ground track
Ground track

The orbit data is extracted from the following two-line orbital elements,

1 47311U 21002C   22178.75964735  .00005533  00000-0  22704-3 0  9991
2 47311  60.6857 323.4449 0018040 344.7235  15.3306 15.25445163 80035
Epoch (UTC): 27 June 2022 18:13:53
Eccentricity: 0.0018040
inclination: 60.6857°
perigee height: 477 km
apogee height: 502 km
right ascension of ascending node: 323.4449°
argument of perigee: 344.7235°
revolutions per day: 15.25445163
mean anomaly at epoch: 15.3306°
orbit number at epoch: 8003

The dashed part of the orbit path shows where the satellite is in the earth's shadow,  

DLR